Location: Brede
(50.9167°N, 0.6000°E)
Time: 09:34:34
(UTC+00:00)

Tiros 1 - Pass Details

Date: 03 December 2020
Orbit: 630 x 663 km, 48.4° (Epoch: 16 January)

Event Time Altitude Azimuth Distance (km) Brightness Sun altitude
Rises 18:34:47 0° 280° (W) 2,994 11.8 -24.4°
Reaches altitude 10° 18:37:18 10° 271° (W) 2,076 10.8 -24.8°
Maximum altitude 18:41:37 35° 207° (SSW) 1,065 8.4 -25.5°
Enters shadow 18:42:40 31° 179° (S) 1,147 8.4 -25.6°
